Weather History for Kirksville, MO

Change the Weather History Date:

Wednesday, April 17, 2013

  Actual Average Record
Temperature  
Mean Temperature 49 °F 52 °F  
Max Temperature 56 °F 63 °F 82 °F (1941)
Min Temperature 42 °F 41 °F 20 °F (1953)
Degree Days  
Heating Degree Days 16 13  
Month to date heating degree days 290 263  
Since 1 July heating degree days 5652 5550  
Cooling Degree Days 0 0  
Month to date cooling degree days 3 0  
Year to date cooling degree days 3 0  
Moisture  
Dew Point 47 °F    
Average Humidity 83    
Maximum Humidity 100    
Minimum Humidity 65    
Precipitation  
Precipitation 3.59 in 0.14 in 3.59 in (2013)
Month to date precipitation 5.80 1.73  
Year to date precipitation 14.59 7.08  
Sea Level Pressure  
Sea Level Pressure 29.86 in    
Wind  
Wind Speed 13 mph (ENE)    
Max Wind Speed 21 mph    
Max Gust Speed 31 mph    
Visibility 4 miles    
Events Rain , Thunderstorm    
T = Trace of Precipitation, MM = Missing Value Source: NWS Daily Summary

Daily Weather History Graph

Daily Weather History Graph

Search for Another Location

Airport:

Trip Planner

Search our weather history database for the weather conditions in past years. The results will help you decide how hot, cold, wet, or windy it might be!

Date:

Astronomy

Apr. 17, 2013 Rise Set
Actual Time 6:28 AM CDT 7:51 PM CDT
Civil Twilight 6:00 AM CDT 8:19 PM CDT
Nautical Twilight 5:26 AM CDT 8:53 PM CDT
Astronomical Twilight 4:51 AM CDT 9:29 PM CDT
Moon 11:43 AM CDT (4/17) 1:29 AM CDT (4/17)
Length of Visible Light 14h 18m
Length of Day
13h 22m
Waxing Crescent, 42% of the Moon is Illuminated
Apr 17
Waxing Crescent
Apr 18
First Quarter
Apr 25
Full
May 2
Last Quarter
May 9
New

Hourly Weather History & Observations

Time (CDT) Temp. Windchill Dew Point Humidity Pressure Visibility Wind Dir Wind Speed Gust Speed Precip Events Conditions
12:33 AM 46.4 °F 42.9 °F 35.6 °F 66% 30.15 in 10.0 mi ENE 6.9 mph - N/A   Overcast
12:55 AM 46.0 °F 41.4 °F 36.0 °F 68% 30.17 in 10.0 mi ENE 9.2 mph - N/A   Overcast
1:55 AM 45.0 °F 39.3 °F 37.9 °F 76% 30.14 in 10.0 mi East 11.5 mph 17.3 mph 0.01 in Rain Light Rain
2:55 AM 46.0 °F 41.4 °F 39.0 °F 76% 30.12 in 10.0 mi East 9.2 mph - 0.00 in   Overcast
3:55 AM 46.0 °F 39.6 °F 39.0 °F 76% 30.08 in 10.0 mi East 15.0 mph 21.9 mph N/A   Overcast
4:55 AM 46.9 °F - 39.9 °F 77% 30.11 in 10.0 mi NE 10.4 mph - N/A   Overcast
5:55 AM 46.9 °F - 39.9 °F 77% 30.07 in 10.0 mi East 16.1 mph 25.3 mph N/A   Overcast
6:55 AM 46.9 °F - 39.9 °F 77% 30.04 in 10.0 mi East 17.3 mph 24.2 mph N/A   Overcast
7:17 AM 46.4 °F 38.7 °F 41.0 °F 81% 30.01 in 8.0 mi East 20.7 mph 27.6 mph N/A   Overcast
7:46 AM 44.6 °F 37.4 °F 42.8 °F 93% 29.99 in 4.0 mi East 16.1 mph - N/A   Overcast
7:55 AM 45.0 °F 36.9 °F 42.1 °F 90% 30.01 in 3.0 mi ESE 20.7 mph 27.6 mph N/A   Overcast
8:04 AM 44.6 °F 38.4 °F 42.8 °F 93% 30.01 in 2.5 mi ESE 12.7 mph 27.6 mph N/A   Overcast
8:29 AM 44.6 °F 38.8 °F 42.8 °F 93% 29.99 in 1.5 mi East 11.5 mph 20.7 mph N/A   Overcast
8:55 AM 44.6 °F 38.1 °F 42.8 °F 93% 29.98 in 1.0 mi East 13.8 mph 21.9 mph N/A   Overcast
9:01 AM 44.6 °F 39.2 °F 42.8 °F 93% 29.98 in 0.8 mi East 10.4 mph - N/A   Overcast
9:52 AM 44.6 °F 38.4 °F 44.6 °F 100% 29.98 in 1.0 mi East 12.7 mph - N/A   Overcast
9:55 AM 45.0 °F 38.9 °F 44.1 °F 97% 30.00 in 1.0 mi ESE 12.7 mph - N/A   Overcast
10:14 AM 44.6 °F 39.2 °F 44.6 °F 100% 29.99 in 0.8 mi ESE 10.4 mph - N/A   Overcast
10:55 AM 46.0 °F 41.9 °F 46.0 °F 100% 30.00 in 0.8 mi East 8.1 mph - N/A   Overcast
11:25 AM 44.6 °F 38.1 °F 44.6 °F 100% 30.01 in 0.8 mi NNE 13.8 mph - N/A Thunderstorm Overcast
11:38 AM 44.6 °F 37.2 °F 44.6 °F 100% 29.99 in 1.0 mi NNE 17.3 mph - 0.01 in Rain , Thunderstorm Light Thunderstorms and Rain
11:55 AM 44.1 °F 35.4 °F 43.0 °F 96% 29.97 in 1.5 mi NE 21.9 mph - 0.01 in Rain , Thunderstorm Light Rain
12:08 PM 44.6 °F 38.4 °F 44.6 °F 100% 29.97 in 2.5 mi ENE 12.7 mph - 0.00 in Rain , Thunderstorm Light Thunderstorms and Rain
12:15 PM 44.6 °F 37.2 °F 44.6 °F 100% 29.97 in 3.0 mi NE 17.3 mph 21.9 mph 0.00 in Rain , Thunderstorm Light Thunderstorms and Rain
12:22 PM 44.6 °F 36.6 °F 44.6 °F 100% 29.98 in 2.0 mi NE 19.6 mph 24.2 mph 0.01 in Rain , Thunderstorm Light Rain
12:55 PM 43.0 °F 36.0 °F 43.0 °F 100% 29.96 in 1.8 mi NNE 13.8 mph 31.1 mph 0.03 in Rain , Thunderstorm Light Thunderstorms and Rain
1:02 PM 42.8 °F 34.5 °F 42.8 °F 100% 29.92 in 2.0 mi East 18.4 mph - 0.01 in Rain , Thunderstorm Thunderstorms and Rain
1:14 PM 42.8 °F 35.4 °F 42.8 °F 100% 29.92 in 7.0 mi NE 15.0 mph - 0.02 in Rain , Thunderstorm Light Rain
1:29 PM 42.8 °F 35.1 °F 42.8 °F 100% 29.90 in 10.0 mi ENE 16.1 mph 21.9 mph 0.03 in Thunderstorm Overcast
1:48 PM 42.8 °F 36.2 °F 41.0 °F 93% 29.97 in - ENE 12.7 mph - 0.03 in Thunderstorm Thunderstorm
1:55 PM 42.1 °F 34.5 °F 41.0 °F 96% 29.94 in 3.0 mi ENE 15.0 mph 23.0 mph 0.08 in Rain , Thunderstorm Thunderstorms and Rain
2:04 PM 42.8 °F 34.5 °F 41.0 °F 93% 29.91 in 2.0 mi ENE 18.4 mph 28.8 mph 0.10 in Rain , Thunderstorm Heavy Thunderstorms and Rain
2:12 PM 42.8 °F 34.8 °F 41.0 °F 93% 29.90 in 1.2 mi ENE 17.3 mph 28.8 mph 0.33 in Rain , Thunderstorm Heavy Thunderstorms and Rain
2:29 PM 42.8 °F 34.5 °F 42.8 °F 100% 29.88 in 1.8 mi ENE 18.4 mph 24.2 mph 0.57 in Rain , Thunderstorm Thunderstorms and Rain
2:35 PM 42.8 °F 35.1 °F 42.8 °F 100% 29.89 in 2.0 mi ENE 16.1 mph 24.2 mph 0.60 in Rain , Thunderstorm Thunderstorms and Rain
2:46 PM 42.8 °F 34.0 °F 42.8 °F 100% 29.86 in 4.0 mi East 20.7 mph 28.8 mph 0.61 in Rain , Thunderstorm Light Rain
2:55 PM 44.1 °F 37.4 °F 44.1 °F 100% 29.88 in 5.0 mi ENE 13.8 mph 24.2 mph 0.62 in Rain , Thunderstorm Light Thunderstorms and Rain
3:05 PM 44.6 °F 37.8 °F 44.6 °F 100% 29.84 in 10.0 mi East 15.0 mph 24.2 mph 0.01 in Thunderstorm Thunderstorm
3:32 PM 46.4 °F 44.3 °F 46.4 °F 100% 29.84 in - ESE 4.6 mph - 0.08 in Thunderstorm Thunderstorm
4:02 PM 46.4 °F 43.5 °F 46.4 °F 100% 29.82 in 9.0 mi Variable 5.8 mph 24.2 mph 0.00 in Rain , Thunderstorm Light Thunderstorms and Rain
4:29 PM 48.2 °F - 48.2 °F 100% 29.78 in 8.0 mi ESE 15.0 mph - 0.01 in Rain , Thunderstorm Light Thunderstorms and Rain
4:55 PM 48.9 °F - 48.9 °F 100% 29.81 in 4.0 mi East 9.2 mph - 0.07 in Rain , Thunderstorm Heavy Thunderstorms and Rain
4:59 PM 48.2 °F - 48.2 °F 100% 29.76 in 2.5 mi East 15.0 mph - 0.03 in Rain , Thunderstorm Heavy Thunderstorms and Rain
5:17 PM 48.2 °F - 48.2 °F 100% 29.79 in 10.0 mi NNE 3.5 mph - 0.11 in Rain , Thunderstorm Light Thunderstorms and Rain
5:53 PM 50.0 °F - 50.0 °F 100% 29.75 in 7.0 mi East 12.7 mph 17.3 mph 0.12 in Rain , Thunderstorm Light Rain
5:55 PM 50.0 °F - 50.0 °F 100% 29.76 in 7.0 mi ENE 18.4 mph - 0.12 in Rain , Thunderstorm Light Rain
6:08 PM 51.8 °F - 51.8 °F 100% 29.76 in 5.0 mi ENE 8.1 mph 19.6 mph 0.00 in Rain , Thunderstorm Light Thunderstorms and Rain
6:11 PM 51.8 °F - 51.8 °F 100% 29.76 in 2.0 mi NE 5.8 mph 17.3 mph 0.04 in Rain , Thunderstorm Heavy Thunderstorms and Rain
6:18 PM 50.0 °F - 50.0 °F 100% 29.73 in 1.2 mi NE 12.7 mph - 0.14 in Rain , Thunderstorm Thunderstorms and Rain
6:23 PM 51.8 °F - 51.8 °F 100% 29.74 in 3.0 mi East 12.7 mph - 0.15 in Rain , Thunderstorm Light Thunderstorms and Rain
6:38 PM 51.8 °F - 51.8 °F 100% 29.72 in 2.5 mi East 12.7 mph 23.0 mph 0.21 in Rain , Thunderstorm Light Thunderstorms and Rain
6:45 PM 51.8 °F - 51.8 °F 100% 29.74 in 4.0 mi East 10.4 mph - 0.23 in Rain , Thunderstorm Thunderstorms and Rain
6:55 PM 51.1 °F - 51.1 °F 100% 29.75 in 4.0 mi East 10.4 mph - 0.25 in Rain , Thunderstorm Thunderstorms and Rain
7:09 PM 51.8 °F - 51.8 °F 100% 29.71 in 6.0 mi East 10.4 mph 20.7 mph 0.02 in Rain Light Rain
7:19 PM 51.8 °F - 51.8 °F 100% 29.71 in 7.0 mi East 13.8 mph - 0.02 in Rain , Thunderstorm Light Rain
7:29 PM 51.8 °F - 51.8 °F 100% 29.70 in 9.0 mi East 11.5 mph - 0.04 in Rain , Thunderstorm Light Rain
7:55 PM 52.0 °F - 52.0 °F 100% 29.73 in 2.5 mi Variable 6.9 mph - 0.19 in Rain , Thunderstorm Light Thunderstorms and Rain
8:02 PM 53.6 °F - 53.6 °F 100% 29.71 in 8.0 mi East 10.4 mph - 0.00 in Rain , Thunderstorm Light Thunderstorms and Rain
8:43 PM 55.4 °F - 55.4 °F 100% 29.67 in 5.0 mi ESE 17.3 mph 27.6 mph 0.10 in Rain , Thunderstorm Thunderstorms and Rain
8:50 PM 55.4 °F - 55.4 °F 100% 29.70 in 2.5 mi ESE 15.0 mph - 0.11 in Thunderstorm Unknown
8:55 PM 54.0 °F - 53.1 °F 97% 29.71 in 1.5 mi ESE 13.8 mph - 0.19 in Thunderstorm Unknown
9:01 PM 53.6 °F - 53.6 °F 100% 29.69 in 4.0 mi ESE 16.1 mph 21.9 mph 0.03 in Rain , Thunderstorm Light Thunderstorms and Rain
9:24 PM 55.4 °F - 55.4 °F 100% 29.67 in 10.0 mi ESE 12.7 mph 19.6 mph 0.05 in Rain , Thunderstorm Light Thunderstorms and Rain
9:55 PM 55.0 °F - 55.0 °F 100% 29.73 in 3.0 mi Variable 4.6 mph 31.1 mph 0.10 in Rain , Thunderstorm Heavy Rain
10:03 PM 55.4 °F - 55.4 °F 100% 29.72 in 2.5 mi NNW 8.1 mph 21.9 mph 0.09 in Rain , Thunderstorm Thunderstorms and Rain
10:14 PM 55.4 °F - 55.4 °F 100% 29.71 in 1.8 mi NNW 12.7 mph - 0.34 in Rain , Thunderstorm Heavy Thunderstorms and Rain
10:18 PM 53.6 °F - 53.6 °F 100% 29.71 in 3.0 mi NNW 16.1 mph 23.0 mph 0.34 in Rain , Thunderstorm Light Thunderstorms and Rain
10:38 PM 53.6 °F - 53.6 °F 100% 29.67 in 2.5 mi NNE 19.6 mph 24.2 mph 0.46 in Rain , Thunderstorm Heavy Thunderstorms and Rain
10:55 PM 54.0 °F - 54.0 °F 100% 29.69 in 6.0 mi NE 13.8 mph - 0.62 in Rain , Thunderstorm Light Thunderstorms and Rain
11:13 PM 53.6 °F - 53.6 °F 100% 29.69 in 1.8 mi NNE 11.5 mph - 0.14 in Rain , Thunderstorm Thunderstorms and Rain
11:24 PM 53.6 °F - 53.6 °F 100% 29.66 in 2.5 mi NE 13.8 mph 21.9 mph 0.26 in Rain , Thunderstorm Light Thunderstorms and Rain
11:28 PM 55.4 °F - 55.4 °F 100% 29.69 in 4.0 mi North 8.1 mph - 0.26 in Rain , Thunderstorm Light Thunderstorms and Rain
11:39 PM 55.4 °F - 55.4 °F 100% 29.68 in 1.8 mi NE 12.7 mph - 0.41 in Rain , Thunderstorm Heavy Thunderstorms and Rain
11:52 PM 53.6 °F - 53.6 °F 100% 29.64 in 2.5 mi ENE 9.2 mph 17.3 mph 0.57 in Rain , Thunderstorm Light Thunderstorms and Rain
11:55 PM 54.0 °F - 54.0 °F 100% 29.66 in 4.0 mi ENE 9.2 mph 17.3 mph 0.57 in Rain , Thunderstorm Light Rain